Time,TemperatureF,DewpointF,PressureIn,WindDirection,WindDirectionDegrees,WindSpeedMPH,WindSpeedGustMPH,Humidity,HourlyPrecipIn,Conditions,Clouds,dailyrainin,SolarRadiationWatts/m^2,SoftwareType,DateUTC
2013-12-13 00:05:00,31.3,28.2,30.37,NE,51,0.0,3.0,88,0.00,,,0.00,0,Wunderground v.1.15,2013-12-13 05:05:00,
2013-12-13 00:10:00,31.4,28.5,30.37,NE,51,0.0,3.0,89,0.00,,,0.00,0,Wunderground v.1.15,2013-12-13 05:10:00,
2013-12-13 00:15:00,31.5,28.6,30.37,NE,51,0.0,3.0,89,0.00,,,0.00,0,Wunderground v.1.15,2013-12-13 05:15:00,
2013-12-13 00:25:00,31.5,28.6,30.36,NE,51,0.0,3.0,89,0.00,,,0.00,0,Wunderground v.1.15,2013-12-13 05:25:00,
2013-12-13 00:35:00,31.6,28.7,30.36,NE,51,0.0,3.0,89,0.00,,,0.00,0,Wunderground v.1.15,2013-12-13 05:35:00,
2013-12-13 00:45:00,31.4,28.5,30.36,NE,51,0.0,3.0,89,0.00,,,0.00,0,Wunderground v.1.15,2013-12-13 05:45:00,
2013-12-13 00:55:00,31.2,28.3,30.35,NE,51,0.0,3.0,89,0.00,,,0.00,0,Wunderground v.1.15,2013-12-13 05:55:00,
2013-12-13 01:00:00,31.1,28.5,30.35,NE,51,0.0,0.0,90,0.00,,,0.00,0,Wunderground v.1.15,2013-12-13 06:00:00,
2013-12-13 01:10:00,31.2,28.6,30.35,NE,51,0.0,1.0,90,0.00,,,0.00,0,Wunderground v.1.15,2013-12-13 06:10:00,
2013-12-13 01:15:00,31.4,28.8,30.34,NE,51,0.0,1.0,90,0.00,,,0.00,0,Wunderground v.1.15,2013-12-13 06:15:00,
2013-12-13 01:20:00,31.5,28.9,30.34,NE,51,0.0,1.0,90,0.00,,,0.00,0,Wunderground v.1.15,2013-12-13 06:20:00,
2013-12-13 01:30:00,31.7,29.1,30.34,NE,51,0.0,1.0,90,0.00,,,0.00,0,Wunderground v.1.15,2013-12-13 06:30:00,
2013-12-13 01:40:00,32.1,29.2,30.33,NE,51,0.0,1.0,89,0.00,,,0.00,0,Wunderground v.1.15,2013-12-13 06:40:00,
2013-12-13 01:50:00,31.9,29.0,30.33,NE,51,0.0,1.0,89,0.00,,,0.00,0,Wunderground v.1.15,2013-12-13 06:50:00,
2013-12-13 01:55:00,31.8,28.9,30.33,NE,51,0.0,1.0,89,0.00,,,0.00,0,Wunderground v.1.15,2013-12-13 06:55:00,
2013-12-13 02:05:00,32.1,29.2,30.32,NE,51,0.0,1.0,89,0.00,,,0.00,0,Wunderground v.1.15,2013-12-13 07:05:00,
2013-12-13 02:15:00,32.3,29.1,30.32,NE,51,0.0,1.0,88,0.00,,,0.00,0,Wunderground v.1.15,2013-12-13 07:15:00,
2013-12-13 02:20:00,32.4,29.2,30.32,NE,51,0.0,1.0,88,0.00,,,0.00,0,Wunderground v.1.15,2013-12-13 07:20:00,
2013-12-13 02:30:00,32.5,29.6,30.31,NE,51,0.0,1.0,89,0.00,,,0.00,0,Wunderground v.1.15,2013-12-13 07:30:00,
2013-12-13 02:40:00,32.5,29.6,30.31,NE,51,0.0,1.0,89,0.00,,,0.00,0,Wunderground v.1.15,2013-12-13 07:40:00,
2013-12-13 02:50:00,32.5,29.6,30.32,NE,51,0.0,1.0,89,0.00,,,0.00,0,Wunderground v.1.15,2013-12-13 07:50:00,
2013-12-13 03:00:00,32.9,30.0,30.31,NE,51,0.0,1.0,89,0.00,,,0.00,0,Wunderground v.1.15,2013-12-13 08:00:00,
2013-12-13 03:05:00,33.0,29.8,30.31,NE,51,0.0,1.0,88,0.00,,,0.00,0,Wunderground v.1.15,2013-12-13 08:05:00,
2013-12-13 03:15:00,32.8,29.6,30.31,NE,51,0.0,1.0,88,0.00,,,0.00,0,Wunderground v.1.15,2013-12-13 08:15:00,
2013-12-13 03:20:00,32.6,29.7,30.30,NE,51,0.0,1.0,89,0.00,,,0.00,0,Wunderground v.1.15,2013-12-13 08:20:00,
2013-12-13 03:30:00,33.0,29.8,30.30,NE,51,0.0,1.0,88,0.00,,,0.00,0,Wunderground v.1.15,2013-12-13 08:30:00,
2013-12-13 03:40:00,33.2,29.2,30.30,NE,51,0.0,1.0,85,0.00,,,0.00,0,Wunderground v.1.15,2013-12-13 08:40:00,
2013-12-13 03:50:00,33.1,29.7,30.30,NE,51,0.0,1.0,87,0.00,,,0.00,0,Wunderground v.1.15,2013-12-13 08:50:00,
2013-12-13 04:00:00,33.2,29.8,30.30,NE,51,0.0,1.0,87,0.00,,,0.00,0,Wunderground v.1.15,2013-12-13 09:00:00,
2013-12-13 04:05:00,32.9,29.7,30.30,NE,51,0.0,1.0,88,0.00,,,0.00,0,Wunderground v.1.15,2013-12-13 09:05:00,
2013-12-13 04:10:00,32.8,29.6,30.30,NE,51,0.0,1.0,88,0.00,,,0.00,0,Wunderground v.1.15,2013-12-13 09:10:00,
2013-12-13 04:20:00,32.7,29.8,30.29,NE,51,0.0,1.0,89,0.00,,,0.00,0,Wunderground v.1.15,2013-12-13 09:20:00,
2013-12-13 04:25:00,32.6,29.7,30.28,NE,51,0.0,1.0,89,0.00,,,0.00,0,Wunderground v.1.15,2013-12-13 09:25:00,
2013-12-13 04:35:00,32.3,29.7,30.28,NE,51,0.0,1.0,90,0.00,,,0.00,0,Wunderground v.1.15,2013-12-13 09:35:00,
2013-12-13 04:40:00,32.3,29.4,30.27,NE,51,0.0,1.0,89,0.00,,,0.00,0,Wunderground v.1.15,2013-12-13 09:40:00,
2013-12-13 04:45:00,32.4,29.8,30.27,NE,51,0.0,1.0,90,0.00,,,0.00,0,Wunderground v.1.15,2013-12-13 09:45:00,
2013-12-13 04:55:00,32.5,29.9,30.26,NE,51,0.0,1.0,90,0.00,,,0.00,0,Wunderground v.1.15,2013-12-13 09:55:00,
2013-12-13 05:00:00,32.6,30.0,30.26,NE,51,0.0,1.0,90,0.00,,,0.00,0,Wunderground v.1.15,2013-12-13 10:00:00,
2013-12-13 05:05:00,32.6,30.0,30.25,NE,51,0.0,1.0,90,0.00,,,0.00,0,Wunderground v.1.15,2013-12-13 10:05:00,
2013-12-13 05:15:00,32.8,29.1,30.25,NE,51,0.0,1.0,86,0.00,,,0.00,0,Wunderground v.1.15,2013-12-13 10:15:00,
2013-12-13 05:25:00,33.3,29.8,30.24,NE,51,0.0,1.0,87,0.00,,,0.00,0,Wunderground v.1.15,2013-12-13 10:25:00,
2013-12-13 05:30:00,33.5,29.5,30.23,NE,51,0.0,1.0,85,0.00,,,0.00,0,Wunderground v.1.15,2013-12-13 10:30:00,
2013-12-13 05:35:00,33.8,29.8,30.23,NE,51,0.0,1.0,85,0.00,,,0.00,0,Wunderground v.1.15,2013-12-13 10:35:00,
2013-12-13 05:45:00,34.2,29.0,30.21,East,89,1.0,1.0,81,0.00,,,0.00,0,Wunderground v.1.15,2013-12-13 10:45:00,
2013-12-13 05:55:00,34.8,28.6,30.23,South,182,1.0,1.0,78,0.00,,,0.00,0,Wunderground v.1.15,2013-12-13 10:55:00,
2013-12-13 06:05:00,35.1,28.6,30.23,South,186,0.0,1.0,77,0.00,,,0.00,0,Wunderground v.1.15,2013-12-13 11:05:00,
2013-12-13 06:10:00,35.2,29.0,30.22,South,186,0.0,1.0,78,0.00,,,0.00,0,Wunderground v.1.15,2013-12-13 11:10:00,
2013-12-13 06:20:00,35.3,28.8,30.23,South,186,0.0,1.0,77,0.00,,,0.00,0,Wunderground v.1.15,2013-12-13 11:20:00,
2013-12-13 06:30:00,35.5,28.7,30.23,South,186,0.0,1.0,76,0.00,,,0.00,0,Wunderground v.1.15,2013-12-13 11:30:00,
2013-12-13 06:40:00,35.7,29.2,30.22,SE,135,0.0,1.0,77,0.00,,,0.00,0,Wunderground v.1.15,2013-12-13 11:40:00,
2013-12-13 06:50:00,35.8,28.6,30.22,SE,135,0.0,1.0,75,0.00,,,0.00,0,Wunderground v.1.15,2013-12-13 11:50:00,
2013-12-13 07:00:00,35.9,28.7,30.21,SE,135,0.0,0.0,75,0.00,,,0.00,0,Wunderground v.1.15,2013-12-13 12:00:00,
2013-12-13 07:10:00,36.0,28.8,30.22,SE,135,0.0,2.0,75,0.00,,,0.00,0,Wunderground v.1.15,2013-12-13 12:10:00,
2013-12-13 07:20:00,36.1,28.3,30.24,SE,135,0.0,2.0,73,0.00,,,0.00,0,Wunderground v.1.15,2013-12-13 12:20:00,
2013-12-13 07:25:00,36.2,28.4,30.24,SE,135,0.0,2.0,73,0.00,,,0.00,0,Wunderground v.1.15,2013-12-13 12:25:00,
2013-12-13 07:30:00,36.2,28.0,30.24,SE,135,0.0,2.0,72,0.00,,,0.00,0,Wunderground v.1.15,2013-12-13 12:30:00,
2013-12-13 07:40:00,36.3,28.8,30.25,SE,135,0.0,2.0,74,0.00,,,0.00,0,Wunderground v.1.15,2013-12-13 12:40:00,
2013-12-13 07:50:00,36.4,28.9,30.24,SE,135,0.0,2.0,74,0.00,,,0.00,0,Wunderground v.1.15,2013-12-13 12:50:00,
2013-12-13 08:00:00,35.9,29.4,30.24,SE,135,0.0,2.0,77,0.00,,,0.00,0,Wunderground v.1.15,2013-12-13 13:00:00,
2013-12-13 08:10:00,35.8,29.3,30.25,SE,135,0.0,2.0,77,0.00,,,0.00,0,Wunderground v.1.15,2013-12-13 13:10:00,
2013-12-13 08:20:00,35.9,28.7,30.25,SE,135,0.0,2.0,75,0.00,,,0.00,9,Wunderground v.1.15,2013-12-13 13:20:00,
2013-12-13 08:25:00,35.8,28.6,30.24,SE,135,0.0,2.0,75,0.00,,,0.00,12,Wunderground v.1.15,2013-12-13 13:25:00,
2013-12-13 08:30:00,35.7,28.9,30.24,SE,135,0.0,2.0,76,0.00,,,0.00,16,Wunderground v.1.15,2013-12-13 13:30:00,
2013-12-13 08:40:00,35.7,29.2,30.25,SE,135,0.0,2.0,77,0.00,,,0.00,14,Wunderground v.1.15,2013-12-13 13:40:00,
2013-12-13 08:50:00,35.4,29.2,30.25,SE,135,0.0,2.0,78,0.00,,,0.00,14,Wunderground v.1.15,2013-12-13 13:50:00,
2013-12-13 09:00:00,35.2,29.6,30.25,SE,135,0.0,2.0,80,0.00,,,0.00,60,Wunderground v.1.15,2013-12-13 14:00:00,
2013-12-13 09:10:00,35.6,30.6,30.25,SE,135,0.0,2.0,82,0.00,,,0.00,49,Wunderground v.1.15,2013-12-13 14:10:00,
2013-12-13 09:15:00,35.9,31.2,30.24,SE,135,0.0,2.0,83,0.00,,,0.00,65,Wunderground v.1.15,2013-12-13 14:15:00,
2013-12-13 09:25:00,36.6,31.6,30.23,SE,135,0.0,2.0,82,0.00,,,0.00,76,Wunderground v.1.15,2013-12-13 14:25:00,
2013-12-13 09:35:00,37.9,30.7,30.23,SE,136,0.0,2.0,75,0.00,,,0.00,107,Wunderground v.1.15,2013-12-13 14:35:00,
2013-12-13 09:40:00,38.5,30.3,30.22,East,90,0.0,2.0,72,0.00,,,0.00,98,Wunderground v.1.15,2013-12-13 14:40:00,
2013-12-13 09:45:00,39.0,29.3,30.23,SSE,167,0.0,2.0,68,0.00,,,0.00,105,Wunderground v.1.15,2013-12-13 14:45:00,
2013-12-13 09:55:00,40.0,30.3,30.22,SSW,209,0.0,2.0,68,0.00,,,0.00,120,Wunderground v.1.15,2013-12-13 14:55:00,
2013-12-13 10:05:00,40.5,29.3,30.22,South,180,0.0,2.0,64,0.00,,,0.00,257,Wunderground v.1.15,2013-12-13 15:05:00,
2013-12-13 10:15:00,41.1,27.4,30.22,SE,138,1.0,2.0,58,0.00,,,0.00,113,Wunderground v.1.15,2013-12-13 15:15:00,
2013-12-13 10:25:00,41.4,27.7,30.22,ESE,112,1.0,2.0,58,0.00,,,0.00,125,Wunderground v.1.15,2013-12-13 15:25:00,
2013-12-13 10:35:00,41.5,27.8,30.21,ESE,109,2.0,2.0,58,0.00,,,0.00,114,Wunderground v.1.15,2013-12-13 15:35:00,
2013-12-13 10:40:00,41.6,28.3,30.21,East,79,1.0,1.0,59,0.00,,,0.00,105,Wunderground v.1.15,2013-12-13 15:40:00,
2013-12-13 10:50:00,41.9,27.8,30.20,SE,132,1.0,1.0,57,0.00,,,0.00,139,Wunderground v.1.15,2013-12-13 15:50:00,
2013-12-13 11:00:00,42.1,28.8,30.20,East,92,1.0,1.0,59,0.00,,,0.00,127,Wunderground v.1.15,2013-12-13 16:00:00,
2013-12-13 11:10:00,42.4,28.7,30.19,ESE,118,0.0,2.0,58,0.00,,,0.00,169,Wunderground v.1.15,2013-12-13 16:10:00,
2013-12-13 11:20:00,42.8,28.6,30.18,SE,132,1.0,1.0,57,0.00,,,0.00,206,Wunderground v.1.15,2013-12-13 16:20:00,
2013-12-13 11:30:00,43.3,28.6,30.17,SE,132,1.0,1.0,56,0.00,,,0.00,230,Wunderground v.1.15,2013-12-13 16:30:00,
2013-12-13 11:40:00,43.8,28.7,30.17,SSE,158,1.0,2.0,55,0.00,,,0.00,199,Wunderground v.1.15,2013-12-13 16:40:00,
2013-12-13 11:50:00,44.0,28.4,30.15,SE,140,1.0,2.0,54,0.00,,,0.00,183,Wunderground v.1.15,2013-12-13 16:50:00,
2013-12-13 12:00:00,44.2,29.0,30.14,SE,139,1.0,1.0,55,0.00,,,0.00,214,Wunderground v.1.15,2013-12-13 17:00:00,
2013-12-13 12:10:00,44.8,30.0,30.14,ESE,109,0.0,2.0,56,0.00,,,0.00,204,Wunderground v.1.15,2013-12-13 17:10:00,
2013-12-13 12:20:00,45.0,29.8,30.13,SE,126,1.0,2.0,55,0.00,,,0.00,246,Wunderground v.1.15,2013-12-13 17:20:00,
2013-12-13 12:25:00,45.2,30.0,30.13,SSE,163,1.0,2.0,55,0.00,,,0.00,250,Wunderground v.1.15,2013-12-13 17:25:00,
2013-12-13 12:35:00,45.8,30.5,30.13,South,187,1.0,2.0,55,0.00,,,0.00,200,Wunderground v.1.15,2013-12-13 17:35:00,
2013-12-13 12:45:00,45.9,30.2,30.12,SE,144,1.0,2.0,54,0.00,,,0.00,169,Wunderground v.1.15,2013-12-13 17:45:00,
2013-12-13 12:50:00,45.8,30.5,30.12,South,172,1.0,1.0,55,0.00,,,0.00,151,Wunderground v.1.15,2013-12-13 17:50:00,
2013-12-13 13:00:00,45.9,31.1,30.13,West,264,1.0,2.0,56,0.00,,,0.00,139,Wunderground v.1.15,2013-12-13 18:00:00,
2013-12-13 13:10:00,46.1,30.8,30.12,SW,215,1.0,1.0,55,0.00,,,0.00,95,Wunderground v.1.15,2013-12-13 18:10:00,
2013-12-13 13:20:00,46.2,31.8,30.12,ENE,71,0.0,4.0,57,0.00,,,0.00,79,Wunderground v.1.15,2013-12-13 18:20:00,
2013-12-13 13:30:00,46.3,31.4,30.12,WSW,250,1.0,1.0,56,0.00,,,0.00,105,Wunderground v.1.15,2013-12-13 18:30:00,
2013-12-13 13:40:00,46.3,31.4,30.11,WSW,250,0.0,4.0,56,0.00,,,0.00,100,Wunderground v.1.15,2013-12-13 18:40:00,
2013-12-13 13:50:00,46.4,31.1,30.10,WSW,250,0.0,4.0,55,0.00,,,0.00,90,Wunderground v.1.15,2013-12-13 18:50:00,
2013-12-13 14:00:00,46.3,31.4,30.09,WSW,250,0.0,4.0,56,0.00,,,0.00,65,Wunderground v.1.15,2013-12-13 19:00:00,
2013-12-13 14:10:00,46.2,32.2,30.08,WSW,250,0.0,4.0,58,0.00,,,0.00,63,Wunderground v.1.15,2013-12-13 19:10:00,
2013-12-13 14:20:00,46.2,32.2,30.07,WSW,250,0.0,4.0,58,0.00,,,0.00,49,Wunderground v.1.15,2013-12-13 19:20:00,
2013-12-13 14:30:00,46.3,32.7,30.07,WSW,250,0.0,4.0,59,0.00,,,0.00,69,Wunderground v.1.15,2013-12-13 19:30:00,
2013-12-13 14:40:00,46.3,32.7,30.05,WSW,250,0.0,4.0,59,0.00,,,0.00,56,Wunderground v.1.15,2013-12-13 19:40:00,
2013-12-13 14:45:00,46.3,33.6,30.05,WSW,250,0.0,4.0,61,0.00,,,0.00,74,Wunderground v.1.15,2013-12-13 19:45:00,
2013-12-13 14:55:00,46.5,33.4,30.05,WSW,250,0.0,4.0,60,0.00,,,0.00,76,Wunderground v.1.15,2013-12-13 19:55:00,
2013-12-13 15:05:00,46.7,32.7,30.05,WSW,250,0.0,4.0,58,0.00,,,0.00,86,Wunderground v.1.15,2013-12-13 20:05:00,
2013-12-13 15:10:00,46.8,33.2,30.05,WSW,250,0.0,4.0,59,0.00,,,0.00,77,Wunderground v.1.15,2013-12-13 20:10:00,
2013-12-13 15:20:00,47.1,33.9,30.04,NW,323,0.0,4.0,60,0.00,,,0.00,62,Wunderground v.1.15,2013-12-13 20:20:00,
2013-12-13 15:30:00,47.5,34.3,30.04,NW,323,0.0,4.0,60,0.00,,,0.00,58,Wunderground v.1.15,2013-12-13 20:30:00,
2013-12-13 15:40:00,47.7,34.1,30.04,NW,323,0.0,4.0,59,0.00,,,0.00,62,Wunderground v.1.15,2013-12-13 20:40:00,
2013-12-13 15:50:00,47.7,33.2,30.04,NW,323,0.0,4.0,57,0.00,,,0.00,40,Wunderground v.1.15,2013-12-13 20:50:00,
2013-12-13 16:00:00,47.4,32.9,30.02,North,355,0.0,4.0,57,0.00,,,0.00,23,Wunderground v.1.15,2013-12-13 21:00:00,
2013-12-13 16:10:00,47.1,33.5,30.01,North,355,0.0,4.0,59,0.00,,,0.00,19,Wunderground v.1.15,2013-12-13 21:10:00,
2013-12-13 16:20:00,46.9,34.6,29.99,NE,54,1.0,4.0,62,0.00,,,0.00,23,Wunderground v.1.15,2013-12-13 21:20:00,
2013-12-13 16:30:00,46.3,35.6,29.98,ENE,59,0.0,4.0,66,0.00,,,0.00,18,Wunderground v.1.15,2013-12-13 21:30:00,
2013-12-13 16:35:00,46.1,36.5,29.99,ENE,59,0.0,4.0,69,0.00,,,0.00,18,Wunderground v.1.15,2013-12-13 21:35:00,
2013-12-13 16:45:00,45.4,37.2,29.98,East,85,1.0,4.0,73,0.00,,,0.00,16,Wunderground v.1.15,2013-12-13 21:45:00,
2013-12-13 16:50:00,45.2,37.7,29.97,East,85,1.0,4.0,75,0.00,,,0.00,19,Wunderground v.1.15,2013-12-13 21:50:00,
2013-12-13 17:00:00,44.9,37.8,29.97,East,85,1.0,1.0,76,0.00,,,0.00,16,Wunderground v.1.15,2013-12-13 22:00:00,
2013-12-13 17:05:00,44.9,37.8,29.98,East,85,0.0,4.0,76,0.00,,,0.01,9,Wunderground v.1.15,2013-12-13 22:05:00,
2013-12-13 17:10:00,45.2,38.7,29.98,NNE,17,0.0,4.0,78,0.00,,,0.01,7,Wunderground v.1.15,2013-12-13 22:10:00,
2013-12-13 17:20:00,45.2,39.1,29.99,NNE,13,0.0,4.0,79,0.00,,,0.01,5,Wunderground v.1.15,2013-12-13 22:20:00,
2013-12-13 17:30:00,45.2,39.7,29.99,NNE,13,0.0,4.0,81,0.00,,,0.01,0,Wunderground v.1.15,2013-12-13 22:30:00,
2013-12-13 17:40:00,45.0,40.8,30.00,North,360,0.0,4.0,85,0.00,,,0.01,0,Wunderground v.1.15,2013-12-13 22:40:00,
2013-12-13 17:50:00,44.5,40.9,30.00,North,360,0.0,4.0,87,0.00,,,0.02,0,Wunderground v.1.15,2013-12-13 22:50:00,
2013-12-13 17:55:00,44.2,40.9,30.00,North,360,0.0,4.0,88,0.07,,,0.03,0,Wunderground v.1.15,2013-12-13 22:55:00,
2013-12-13 18:05:00,43.6,41.1,29.99,North,360,0.0,4.0,91,0.16,,,0.05,0,Wunderground v.1.15,2013-12-13 23:05:00,
2013-12-13 18:15:00,43.2,41.0,29.98,North,360,0.0,4.0,92,0.08,,,0.06,0,Wunderground v.1.15,2013-12-13 23:15:00,
2013-12-13 18:25:00,43.0,41.1,29.97,North,360,0.0,4.0,93,0.08,,,0.07,0,Wunderground v.1.15,2013-12-13 23:25:00,
2013-12-13 18:35:00,42.8,40.9,29.96,North,360,0.0,4.0,93,0.06,,,0.08,0,Wunderground v.1.15,2013-12-13 23:35:00,
2013-12-13 18:40:00,42.7,41.1,29.96,North,360,0.0,4.0,94,0.08,,,0.09,0,Wunderground v.1.15,2013-12-13 23:40:00,
2013-12-13 18:50:00,42.6,41.0,29.95,North,360,0.0,4.0,94,0.06,,,0.10,0,Wunderground v.1.15,2013-12-13 23:50:00,
2013-12-13 19:00:00,42.7,41.4,29.95,North,360,0.0,1.0,95,0.08,,,0.11,0,Wunderground v.1.15,2013-12-14 00:00:00,
2013-12-13 19:10:00,42.8,41.5,29.94,North,360,0.0,2.0,95,0.06,,,0.12,0,Wunderground v.1.15,2013-12-14 00:10:00,
2013-12-13 19:20:00,42.9,41.6,29.93,NNE,28,1.0,1.0,95,0.07,,,0.13,0,Wunderground v.1.15,2013-12-14 00:20:00,
2013-12-13 19:25:00,43.0,41.7,29.93,NNE,28,1.0,2.0,95,0.06,,,0.14,0,Wunderground v.1.15,2013-12-14 00:25:00,
2013-12-13 19:35:00,43.1,41.8,29.91,ENE,68,1.0,2.0,95,0.08,,,0.15,0,Wunderground v.1.15,2013-12-14 00:35:00,
2013-12-13 19:45:00,43.1,41.8,29.91,ENE,68,1.0,2.0,95,0.05,,,0.16,0,Wunderground v.1.15,2013-12-14 00:45:00,
2013-12-13 19:55:00,43.2,41.9,29.90,ENE,68,1.0,2.0,95,0.07,,,0.17,0,Wunderground v.1.15,2013-12-14 00:55:00,
2013-12-13 20:05:00,43.2,41.9,29.89,ENE,68,1.0,2.0,95,0.06,,,0.18,0,Wunderground v.1.15,2013-12-14 01:05:00,
2013-12-13 20:15:00,43.3,42.0,29.88,East,82,1.0,2.0,95,0.08,,,0.19,0,Wunderground v.1.15,2013-12-14 01:15:00,
2013-12-13 20:25:00,43.3,42.0,29.88,East,89,1.0,2.0,95,0.06,,,0.20,0,Wunderground v.1.15,2013-12-14 01:25:00,
2013-12-13 20:35:00,43.5,42.2,29.87,East,89,1.0,2.0,95,0.06,,,0.21,0,Wunderground v.1.15,2013-12-14 01:35:00,
2013-12-13 20:45:00,43.7,42.6,29.87,NE,41,1.0,2.0,96,0.07,,,0.23,0,Wunderground v.1.15,2013-12-14 01:45:00,
2013-12-13 20:55:00,43.8,42.5,29.87,NE,41,0.0,2.0,95,0.07,,,0.24,0,Wunderground v.1.15,2013-12-14 01:55:00,
2013-12-13 21:05:00,44.0,42.9,29.88,NE,41,0.0,2.0,96,0.08,,,0.25,0,Wunderground v.1.15,2013-12-14 02:05:00,
2013-12-13 21:15:00,44.1,43.0,29.86,NE,41,0.0,2.0,96,0.06,,,0.26,0,Wunderground v.1.15,2013-12-14 02:15:00,
2013-12-13 21:25:00,44.3,43.2,29.86,NE,41,0.0,2.0,96,0.08,,,0.28,0,Wunderground v.1.15,2013-12-14 02:25:00,
2013-12-13 21:35:00,44.6,43.5,29.86,NE,41,0.0,2.0,96,0.09,,,0.29,0,Wunderground v.1.15,2013-12-14 02:35:00,
2013-12-13 21:40:00,44.6,43.5,29.85,NE,41,0.0,2.0,96,0.08,,,0.30,0,Wunderground v.1.15,2013-12-14 02:40:00,
2013-12-13 21:50:00,44.7,43.6,29.85,NE,41,0.0,2.0,96,0.09,,,0.31,0,Wunderground v.1.15,2013-12-14 02:50:00,
2013-12-13 21:55:00,44.9,43.8,29.85,NE,41,0.0,2.0,96,0.07,,,0.32,0,Wunderground v.1.15,2013-12-14 02:55:00,
2013-12-13 22:05:00,45.2,44.1,29.84,NE,41,0.0,2.0,96,0.09,,,0.33,0,Wunderground v.1.15,2013-12-14 03:05:00,
2013-12-13 22:15:00,45.2,44.1,29.83,NE,41,0.0,2.0,96,0.09,,,0.35,0,Wunderground v.1.15,2013-12-14 03:15:00,
2013-12-13 22:20:00,45.3,44.2,29.83,NE,41,0.0,2.0,96,0.09,,,0.35,0,Wunderground v.1.15,2013-12-14 03:20:00,
2013-12-13 22:30:00,45.5,44.4,29.83,NE,41,0.0,2.0,96,0.07,,,0.36,0,Wunderground v.1.15,2013-12-14 03:30:00,
2013-12-13 22:40:00,45.7,44.6,29.82,NE,41,0.0,2.0,96,0.06,,,0.38,0,Wunderground v.1.15,2013-12-14 03:40:00,
2013-12-13 22:50:00,46.0,44.9,29.82,NE,41,0.0,2.0,96,0.08,,,0.39,0,Wunderground v.1.15,2013-12-14 03:50:00,
2013-12-13 23:00:00,46.8,46.0,29.81,NE,41,0.0,2.0,97,0.07,,,0.40,0,Wunderground v.1.15,2013-12-14 04:00:00,
2013-12-13 23:10:00,47.2,46.4,29.82,NE,41,0.0,2.0,97,0.08,,,0.41,0,Wunderground v.1.15,2013-12-14 04:10:00,
2013-12-13 23:20:00,47.9,47.1,29.82,SSE,149,0.0,2.0,97,0.06,,,0.42,0,Wunderground v.1.15,2013-12-14 04:20:00,
2013-12-13 23:30:00,48.8,48.0,29.82,SW,217,1.0,2.0,97,0.07,,,0.43,0,Wunderground v.1.15,2013-12-14 04:30:00,
2013-12-13 23:40:00,49.7,48.9,29.81,SE,145,1.0,1.0,97,0.06,,,0.44,0,Wunderground v.1.15,2013-12-14 04:40:00,
2013-12-13 23:50:00,50.5,49.7,29.80,ESE,110,1.0,2.0,97,0.06,,,0.45,0,Wunderground v.1.15,2013-12-14 04:50:00,